EW8735 Weather Reports


time (UTC)temp
C
wind
direction
speed
KPH
gust
KPH
rain 1hr
cm
rain 24hr
cm
rain mn
cm
humidity
%
barometer
mb
20260504010050 26 350 0.0 0.0 0.00 0.00 0.00 31 1005.8
20260504004546 26 359 0.0 0.0 0.00 0.00 0.00 31 1006.0
20260504003047 26 359 0.0 0.0 0.00 0.00 0.00 30 1006.1
20260504001544 26 359 0.0 0.0 0.00 0.00 0.00 29 1006.3
20260504000046 27 4 0.0 0.0 0.00 0.00 0.00 28 1006.4
20260503234541 27 4 0.0 0.0 0.00 0.00 0.00 28 1006.5
20260503233040 26 4 0.0 0.0 0.00 0.00 0.00 30 1006.6
20260503231540 27 359 0.0 0.0 0.00 0.00 0.00 28 1006.7
20260503230039 27 354 0.0 0.0 0.00 0.00 0.00 29 1006.8
20260503224536 27 354 0.0 0.0 0.00 0.00 0.00 28 1006.9
20260503223034 27 354 0.0 0.0 0.00 0.00 0.00 24 1007.2
20260503221534 27 354 0.0 0.0 0.00 0.00 0.00 27 1007.2
20260503220032 27 354 0.0 0.0 0.00 0.00 0.00 33 1007.5
20260503214539 27 354 0.0 0.0 0.00 0.00 0.00 34 1007.6
20260503213029 27 359 0.0 0.0 0.00 0.00 0.00 29 1007.8
20260503211525 27 359 0.0 0.0 0.00 0.00 0.00 32 1008.1
20260503210024 27 354 0.0 0.0 0.00 0.00 0.00 32 1008.2
20260503204520 26 359 0.0 0.0 0.00 0.00 0.00 33 1008.3
20260503203017 26 354 0.0 0.0 0.00 0.00 0.00 37 1008.5
20260503201516 25 354 0.0 0.0 0.00 0.00 0.00 41 1008.8
20260503200013 25 354 0.0 0.0 0.00 0.00 0.00 38 1008.9
20260503194510 24 354 0.0 0.0 0.00 0.00 0.00 37 1009.2
20260503193009 24 354 0.0 0.0 0.00 0.00 0.00 36 1009.4
20260503191515 24 354 0.0 0.0 0.00 0.00 0.00 37 1009.6
20260503190007 23 354 0.0 0.0 0.00 0.00 0.00 42 1009.8
20260503184629 22 359 0.0 0.0 0.00 0.00 0.00 45 1009.9
20260503183102 22 359 0.0 0.0 0.00 0.00 0.00 46 1010.0
20260503181614 22 359 0.0 0.0 0.00 0.00 0.00 41 1010.2
20260503180116 22 354 0.0 0.0 0.00 0.00 0.00 45 1010.4
20260503174558 22 354 0.0 0.0 0.00 0.00 0.00 42 1010.4
20260503173102 22 354 0.0 0.0 0.00 0.00 0.00 46 1010.5
20260503171549 21 354 0.0 0.0 0.00 0.00 0.00 48 1010.5
20260503081541 11 322 0.0 0.0 0.00 0.00 0.00 80 1009.4
20260503071522 14 322 0.0 0.0 0.00 0.00 0.00 72 1009.1
20260503054517 15 359 0.0 0.0 0.00 0.00 0.00 71 1008.7
20260503053019 15 322 0.0 0.0 0.00 0.00 0.00 70 1008.7
20260503051530 14 322 0.0 0.0 0.00 0.00 0.00 70 1008.7
20260503050014 15 322 0.0 0.0 0.00 0.00 0.00 69 1008.6
20260503044513 15 323 0.0 0.0 0.00 0.00 0.00 67 1008.5
20260503043014 15 322 0.0 0.0 0.00 0.00 0.00 65 1008.5
20260503041512 16 322 0.0 0.0 0.00 0.00 0.00 65 1008.4
20260503040011 17 322 0.0 0.0 0.00 0.00 0.00 59 1008.0
20260503034511 17 322 0.0 0.0 0.00 0.00 0.00 59 1007.7
20260503033016 18 322 0.0 0.0 0.00 0.00 0.00 60 1007.6
20260503031510 20 359 0.0 0.0 0.00 0.00 0.00 55 1007.2
20260503030015 21 322 0.0 0.0 0.00 0.00 0.00 55 1007.1
20260503024508 22 336 0.0 0.0 0.00 0.00 0.00 52 1007.0
20260503023008 23 336 0.0 0.0 0.00 0.00 0.00 49 1007.0
20260503021507 24 343 0.0 0.0 0.00 0.00 0.00 48 1007.0
20260503020007 25 342 0.0 0.0 0.00 0.00 0.00 46 1007.0
20260503014506 25 341 0.0 0.0 0.00 0.00 0.00 45 1007.1
20260503013006 25 341 0.0 0.0 0.00 0.00 0.00 43 1007.2
20260503011506 25 359 0.0 0.0 0.00 0.00 0.00 43 1007.2